Weather in Ravda

Bulgaria     42°38′39″N   27°40′41″E
temp.,
°C
wind,
m/s
gust,
m/s
humid.,
%
clouds,
%
prec.,
mm/h
press.,
hPa
HPBL,
m
8 march, mon
mon823:00+2ssw47710 0.0 1023249
02:00+1sw35790 0.0 1021160
05:000wsw38780 0.0 1019265
08:00+2wsw48730 0.0 1018379
11:00+7wsw46620 0.0 1018586
14:00+10wsw46528 0.0 10161212
17:00+9ssw356226 0.0 1015412
20:00+6ssw227613 0.0 101629
9 march, tue
tue923:00+5w33720 0.0 101659
02:00+4wnw35600 0.0 101789
05:00+2nnw49660 0.0 1018274
08:00+2n367820 0.0 1020400
11:00+5nne346859 0.0 1021665
14:00+6ne566880 0.0 1021678
17:00+5ene5676100 0.0 1021693
20:00+5e457796 0.0 1022750
10 march, wed
wed1023:00+5ese4678100 0.0 1022688
02:00+5ese4781100 0.1 1020680
05:00+5e5782100 0.1 1018657
08:00+5e5882100 0.2 1018760
11:00+5ene6882100 1.0 1017742
14:00+4ene7992100 2.7 1017604
17:00+3ne4696100 1.8 1016399
20:00+3n2496100 3.5 1018309
11 march, thu
thu1123:00+2nnw4696100 0.7 1019413
02:00+2n71088100 0.9 1020795
05:00+1n6118496 0.0 1021581
08:00+2n6107485 0.0 1024709
11:00+5nne565815 0.0 10251113
14:00+6ne345124 0.0 10261395
17:00+5ese326099 0.0 1026608
20:00+3se127281 0.0 1027112
12 march, fri
fri1223:00+2s22750 0.0 1028123
02:00+1sw23800 0.0 1027129
05:00+2ssw347819 0.0 1026129
08:00+3ssw367221 0.0 1026353
11:00+6s576250 0.0 1025762
14:00+8s676475 0.0 1023771
17:00+7sse4673100 0.0 1021370
20:00+6s3582100 0.0 1021138